Content
SEND FEEDBACK

Daily
Averages
Monthly
Summary
United States of America

DIAMOND, MISSOURI


Home > North America > United States > Missouri
Elevation: 1160 feet     Latitude: 36 59N     Longitude: 094 19W

WEATHER
 
SELECT A DAY
Number of Records: 201,793;   Date Range: 1/1/95 - 10/24/14
 
SHARE

PRINT THIS DATA

[ ← Previous Day ]
WEATHER ALMANAC - FEBRUARY 13, 2013
[ Next Day → ]
[ °C ]   °F
Weather ElementAverageHighLow
Temperature35.7 °F48 °F (3:53 pm)30.2 °F (7:53 am)
Dewpoint31.8 °F36 °F (1:53 pm)28 °F (11:53 pm)
Humidity87.4 %100 % (1:03 am)56 % (4:53 pm)
Barometer29.97 in30.02 in (10:53 am)29.92 in (4:53 pm)
Wind Speed8.1 mph16.1 mph (11:53 am)
Wind Gust20.7 mph (10:05 am)
Weather ElementAverage
Visibility4.8 mi
Wind DirectionSW (219.5 °)

Weather ElementTotal
Precipitation0.09 in
Heating Degree Days25.9 (Base 65)
Averaged from 41 records on February 13, 2013
WEATHER CONDITIONS BREAKOUT
WIND DIRECTION BREAKOUT
WEATHER BY HOUR - FEBRUARY 13, 2013
[ °C ]   °F
Local TimeTemperatureDewpointHumidityBarometerVisibilityWind DirectionWind SpeedGust SpeedPrecipitationEventsConditions
12:17 AM32.0 °F30.2 °F93 %29.99 in1.8 miNNW (330°)5.8 mph0.00 inSnowLight Snow
12:20 AM32.0 °F30.2 °F93 %29.99 in1.8 miNW (320°)6.9 mph0.01 inSnowLight Snow
12:42 AM32.0 °F30.2 °F93 %29.99 in2.0 miNW (320°)6.9 mph0.01 inSnowLight Snow
12:53 AM32.0 °F30.9 °F96 %30.00 in2.0 miNW (320°)5.8 mph0.01 inSnowLight Snow
1:03 AM32.0 °F32.0 °F100 %29.99 in1.8 miNW (320°)4.6 mph0.00 inSnowLight Snow
1:31 AM32.0 °F32.0 °F100 %29.98 in2.0 miCalm0.02 inSnowLight Snow
1:43 AM32.0 °F32.0 °F100 %29.98 in3.0 miCalm0.02 inRainLight Freezing Rain
1:53 AM32.0 °F30.9 °F96 %30.00 in3.0 miWest (280°)3.5 mph0.02 inRainLight Freezing Rain
2:05 AM32.0 °F30.2 °F93 %29.98 in2.5 miCalm0.00 inOvercast
2:10 AM32.0 °F32.0 °F100 %29.98 in3.0 miNW (310°)3.5 mph0.00 inRainLight Freezing Rain
2:38 AM32.0 °F32.0 °F100 %29.98 in2.5 miWNW (300°)4.6 mph0.00 inOvercast
2:51 AM32.0 °F32.0 °F100 %29.98 in1.8 miNW (310°)5.8 mph0.00 inOvercast
2:53 AM32.0 °F32.0 °F100 %29.99 in1.8 miNW (310°)3.5 mph0.00 inOvercast
3:14 AM32.0 °F32.0 °F100 %29.96 in0.8 miCalmMist
3:32 AM32.0 °F30.2 °F93 %29.96 in0.5 miWSW (240°)4.6 mphFogFog
3:53 AM32.0 °F32.0 °F100 %29.98 in0.5 miCalmFogFog
4:23 AM32.0 °F32.0 °F100 %29.96 in0.8 miSW (220°)3.5 mphMist
4:35 AM32.0 °F32.0 °F100 %29.96 in0.5 miSW (230°)3.5 mphFogFog
4:53 AM30.9 °F30.9 °F100 %29.98 in0.2 miSW (230°)6.9 mphFogLight Freezing Fog
5:53 AM30.9 °F30.9 °F100 %29.99 in0.2 miSW (220°)6.9 mphFogLight Freezing Fog
6:53 AM30.9 °F30.9 °F100 %30.00 in0.5 miSW (220°)8.1 mphFogLight Freezing Fog
7:53 AM30.2 °F30.2 °F100 %29.98 in0.8 miSW (230°)15.0 mphOvercast
8:53 AM32.0 °F32.0 °F100 %30.01 in2.0 miSW (220°)11.5 mphOvercast
9:08 AM32.0 °F32.0 °F100 %29.98 in4.0 miSW (230°)15.0 mphOvercast
9:53 AM32.0 °F30.9 °F96 %30.01 in8.0 miSW (230°)13.8 mph19.6 mphOvercast
10:05 AM32.0 °F32.0 °F100 %30.00 in9.0 miSW (230°)15.0 mph20.7 mphOvercast
10:53 AM33.1 °F30.9 °F92 %30.02 in8.0 miWSW (240°)13.8 mphOvercast
11:53 AM35.1 °F33.1 °F92 %30.02 in8.0 miSW (230°)16.1 mphOvercast
12:53 PM39.0 °F35.1 °F86 %29.99 in7.0 miSW (230°)9.2 mphMostly Cloudy
1:24 PM42.8 °F35.6 °F76 %29.96 in8.0 miSW (220°)11.5 mphPartly Cloudy
1:53 PM44.1 °F36.0 °F73 %29.97 in10.0 miSW (230°)15.0 mphClear
2:53 PM46.0 °F34.0 °F63 %29.95 in10.0 miWSW (240°)12.7 mphClear
3:53 PM48.0 °F34.0 °F58 %29.94 in10.0 miSW (230°)10.4 mphClear
4:53 PM48.0 °F33.1 °F56 %29.92 in10.0 miSW (220°)11.5 mphClear
5:53 PM46.0 °F33.1 °F61 %29.92 in10.0 miSW (220°)10.4 mphClear
6:53 PM43.0 °F32.0 °F65 %29.92 in10.0 miSSW (210°)10.4 mphClear
7:53 PM44.1 °F32.0 °F63 %29.92 in10.0 miSW (220°)12.7 mphClear
8:53 PM43.0 °F30.9 °F62 %29.93 in10.0 miSW (220°)10.4 mphClear
9:53 PM42.1 °F30.9 °F65 %29.94 in10.0 miSW (220°)11.5 mphClear
10:53 PM42.1 °F28.9 °F60 %29.94 in10.0 miSW (220°)10.4 mphClear
11:53 PM41.0 °F28.0 °F60 %29.95 in10.0 miSW (230°)11.5 mphClear
Hourly data recorded from KJLN, located miles away from Diamond, Missouri







STORIES FROM OUR PARTNERS